{"data":{"norad_id":58028,"intl_designator":"2023-156A","name":"STARLINK-30514","alt_names":[],"object_type":"PAYLOAD","status":"ACTIVE","operator":null,"country":"US","launch_date":"2023-10-09","launch_site_code":"AFWTR","launch_vehicle":null,"mission":null,"orbit_class":"UNKNOWN","rcs_meters":null,"size_class":null,"mass_kg":null,"dimensions":null,"purposes":["comms"],"wikipedia_slug":null,"has_3d_model":false,"image_url":null,"decayed_at":null,"tle_current":{"epoch":"2026-09-20T09:08:23.949600Z","epoch_age_seconds":147971,"freshness":"FRESH","line1":"1 58028U 23156A   26263.38083275  .00000941  00000+0  38981-4 0  9991","line2":"2 58028  53.1591 251.9614 0001374  83.5915 276.5244 15.34389989166151","mean_motion":15.34389989,"eccentricity":0.0001374,"inclination_deg":53.1591,"raan_deg":251.9614,"arg_perigee_deg":83.5915,"mean_anomaly_deg":276.5244,"bstar":3.8981e-5,"rev_number":16615,"period_min":93.848370383235,"perigee_km":461.79305963327,"apogee_km":463.67293070794,"semimajor_km":6840.8699951706,"source":"CELESTRAK","updated_at":"2026-09-21T09:00:33.757412Z"}}}